Voltar ao catálogo

STARLINK-37494

AtivoComunicaçõesSSO
NORAD 68905·PAYLOAD·🇺🇸 United States

Lançado Apr 30, 2026 de Vandenberg Space Force Base

Loading…

Próximas Passagens (próximas 24 horas)

TLE

AtualizadoSource: CelesTrak SupGP

Época: Sep 14, 2026, 23:18 UTC

1 68905C 26097L   26257.97131944  .00070720  00000+0  21950-2 0  2573
2 68905  97.2853  92.1826 0001611  93.2430 280.4555 15.33407110    17

Acompanhe STARLINK-37494 em tempo real com AllMySat

Download on the App Store